Location: Newark
(48.1500°N, 13.1167°E)
Time: 08:26:18
(UTC+00:00)

KAITUO 1B - Pass Details

Date: 02 December 2021
Orbit: 486 x 507 km, 97.4° (Epoch: 18 January)

Event Time Altitude Azimuth Distance (km) Brightness Sun altitude
Rises 05:26:37 0° 17° (NNE) 2,634 ? -11.5°
Reaches altitude 10° 05:28:46 10° 22° (NNE) 1,741 ? -11.1°
Maximum altitude 05:32:26 52° 99° (E) 640 ? -10.6°
Drops below altitude 10° 05:36:04 10° 177° (S) 1,716 ? -10.0°
Sets 05:38:10 0° 183° (S) 2,592 ? -9.7°
